Weather History for Montgomery, NY

Change the Weather History Date:

Thursday, April 18, 2013

  Actual Average (KPOU) Record (KPOU)
Temperature  
Mean Temperature 50 °F 50 °F  
Max Temperature 63 °F 62 °F 94 °F (1976)
Min Temperature 39 °F 38 °F 24 °F (1962)
Degree Days  
Heating Degree Days 14 15  
Month to date heating degree days 335  
Since 1 July heating degree days 5780  
Cooling Degree Days 0 0  
Month to date cooling degree days 0  
Year to date cooling degree days 0  
Moisture  
Dew Point 40 °F    
Average Humidity 67    
Maximum Humidity 86    
Minimum Humidity 35    
Precipitation  
Precipitation 0.00 in 0.12 in 0.36 in (1969)
Month to date precipitation 2.30  
Year to date precipitation 11.61  
Sea Level Pressure  
Sea Level Pressure 30.24 in    
Wind  
Wind Speed 4 mph (South)    
Max Wind Speed 17 mph    
Max Gust Speed 25 mph    
Visibility 10 miles    
Events Rain    
T = Trace of Precipitation, MM = Missing Value Source: NWS Daily Summary

Daily Weather History Graph

Daily Weather History Graph

Search for Another Location

Airport:

Trip Planner

Search our weather history database for the weather conditions in past years. The results will help you decide how hot, cold, wet, or windy it might be!

Date:

Astronomy

Apr. 18, 2013 Rise Set
Actual Time 6:12 AM EDT 7:41 PM EDT
Civil Twilight 5:43 AM EDT 8:10 PM EDT
Nautical Twilight 5:08 AM EDT 8:45 PM EDT
Astronomical Twilight 4:31 AM EDT 9:22 PM EDT
Moon 12:20 PM EDT (4/18) 1:55 AM EDT (4/18)
Length of Visible Light 14h 26m
Length of Day
13h 28m
First Quarter, 51% of the Moon is Illuminated
Apr 18
First Quarter
Apr 25
Full
May 2
Last Quarter
May 9
New
May 18
First Quarter

Hourly Weather History & Observations

Time (EDT) Temp. Windchill Dew Point Humidity Pressure Visibility Wind Dir Wind Speed Gust Speed Precip Events Conditions
12:54 AM 42.1 °F - 36.0 °F 79% 30.30 in 10.0 mi Calm Calm - N/A   Clear
1:54 AM 41.0 °F - 35.1 °F 79% 30.29 in 10.0 mi Calm Calm - N/A   Clear
2:54 AM 39.0 °F - 35.1 °F 86% 30.31 in 10.0 mi Calm Calm - N/A   Clear
3:54 AM 39.9 °F - 35.1 °F 83% 30.31 in 10.0 mi Calm Calm - N/A   Clear
4:54 AM 41.0 °F 39.0 °F 33.1 °F 73% 30.30 in 10.0 mi NNE 3.5 mph - N/A   Clear
5:54 AM 42.1 °F - 33.1 °F 70% 30.31 in 10.0 mi Calm Calm - N/A   Scattered Clouds
6:54 AM 43.0 °F - 37.0 °F 80% 30.32 in 10.0 mi Calm Calm - N/A   Overcast
7:54 AM 46.9 °F - 37.9 °F 71% 30.33 in 10.0 mi NNE 5.8 mph - N/A   Overcast
8:54 AM 51.1 °F - 39.9 °F 66% 30.33 in 10.0 mi NNE 4.6 mph - N/A   Overcast
9:54 AM 55.0 °F - 37.0 °F 51% 30.32 in 10.0 mi South 8.1 mph - N/A   Overcast
10:54 AM 59.0 °F - 36.0 °F 42% 30.32 in 10.0 mi South 12.7 mph 19.6 mph N/A   Overcast
11:54 AM 59.0 °F - 36.0 °F 42% 30.30 in 10.0 mi SSE 9.2 mph 19.6 mph N/A   Overcast
12:54 PM 62.1 °F - 35.1 °F 37% 30.27 in 10.0 mi South 17.3 mph 24.2 mph N/A   Overcast
1:54 PM 61.0 °F - 34.0 °F 36% 30.25 in 10.0 mi South 13.8 mph 21.9 mph N/A   Overcast
2:54 PM 59.0 °F - 30.9 °F 35% 30.24 in 10.0 mi SSE 12.7 mph - N/A   Overcast
3:54 PM 57.0 °F - 37.0 °F 47% 30.22 in 10.0 mi SSE 15.0 mph 25.3 mph 0.00 in Rain Light Rain
4:54 PM 55.0 °F - 42.1 °F 62% 30.22 in 10.0 mi SSW 8.1 mph - 0.00 in   Overcast
5:28 PM 55.4 °F - 44.6 °F 67% 30.20 in 10.0 mi South 6.9 mph - N/A   Overcast
5:54 PM 54.0 °F - 46.0 °F 75% 30.20 in 8.0 mi South 6.9 mph - 0.00 in Rain Light Rain
6:54 PM 54.0 °F - 46.0 °F 75% 30.19 in 10.0 mi SSE 4.6 mph - 0.00 in   Overcast
7:34 PM 53.6 °F - 46.4 °F 77% 30.16 in 10.0 mi South 11.5 mph - N/A   Overcast
7:54 PM 53.1 °F - 46.9 °F 80% 30.16 in 10.0 mi South 3.5 mph - N/A   Overcast
8:54 PM 53.1 °F - 46.9 °F 80% 30.15 in 10.0 mi South 5.8 mph - N/A   Overcast
9:54 PM 53.1 °F - 48.0 °F 83% 30.14 in 10.0 mi SSW 4.6 mph - N/A   Overcast
10:54 PM 53.1 °F - 48.9 °F 86% 30.10 in 10.0 mi Calm Calm - N/A   Overcast
11:54 PM 54.0 °F - 48.9 °F 83% 30.09 in 9.0 mi Calm Calm - N/A   Overcast